EW0734 Weather Reports


time (UTC)temp
F
wind
direction
speed
knots
gust
knots
rain 1hr
in
rain 24hr
in
rain mn
in
humidity
%
barometer
mb
20260507213024 58 0.0 1.7 0.00 0.00 0.00 71 1008.1
20260507212025 58 0.0 3.5 0.00 0.00 0.00 71 1008.2
20260507211045 58 0.0 1.7 0.00 0.00 0.00 73 1008.2
20260507210025 58 0.0 2.6 0.00 0.00 0.00 73 1008.4
20260507205045 58 68 0.9 2.6 0.00 0.00 0.00 75 1008.4
20260507204025 58 68 0.9 4.3 0.00 0.00 0.00 71 1008.3
20260507203024 57 90 0.9 5.2 0.00 0.00 0.00 70 1008.4
20260507202024 57 90 0.9 3.5 0.00 0.00 0.00 72 1008.4
20260507201045 57 90 0.9 4.3 0.00 0.00 0.00 71 1008.5
20260507200025 56 0.0 0.9 0.00 0.00 0.00 71 1008.3
20260507195025 57 90 0.9 2.6 0.00 0.00 0.00 68 1008.6
20260507194105 57 0.0 3.5 0.00 0.00 0.00 67 1008.9
20260507193026 57 0.0 1.7 0.00 0.00 0.00 68 1008.8
20260507192025 57 0.0 0.9 0.00 0.00 0.00 73 1008.5
20260507191025 57 0.0 5.2 0.00 0.00 0.00 74 1008.5
20260507190024 57 0.0 2.6 0.00 0.00 0.00 74 1009.1
20260507185025 55 0.0 0.9 0.00 0.00 0.00 79 1009.2
20260507184025 55 0.0 0.0 0.00 0.00 0.00 77 1009.4
20260507183024 56 0.0 0.0 0.00 0.00 0.00 74 1009.6
20260507182025 57 0.0 0.9 0.00 0.00 0.00 64 1009.8
20260507181025 57 0.0 0.9 0.00 0.00 0.00 62 1009.5
20260507180025 56 0.0 1.7 0.00 0.00 0.00 62 1009.5
20260507175024 56 0.0 2.6 0.00 0.00 0.00 59 1009.8
20260507174026 56 0.0 1.7 0.00 0.00 0.00 58 1009.6
20260507173025 56 0.0 1.7 0.00 0.00 0.00 65 1009.7
20260507172025 56 0.0 1.7 0.00 0.00 0.00 66 1009.8
20260507171025 56 68 0.9 3.5 0.00 0.00 0.00 63 1010.2
20260507170024 56 0.0 1.7 0.00 0.00 0.00 66 1010.1
20260507165025 56 0.0 1.7 0.00 0.00 0.00 70 1010.3
20260507164025 55 0.0 0.0 0.00 0.00 0.00 69 1010.5
20260507163025 55 0.0 1.7 0.00 0.00 0.00 65 1010.8
20260507162024 56 0.0 0.9 0.00 0.00 0.00 67 1010.7
20260507161025 56 0.0 2.6 0.00 0.00 0.00 69 1010.6
20260507160025 56 0.0 0.9 0.00 0.00 0.00 69 1010.6
20260507155025 56 0.0 0.9 0.00 0.00 0.00 72 1010.8
20260507154025 57 0.0 0.9 0.00 0.00 0.00 72 1010.6
20260507153044 57 0.0 0.9 0.00 0.00 0.00 69 1010.7
20260507152025 57 0.0 0.9 0.00 0.00 0.00 69 1010.9
20260507151024 57 0.0 0.9 0.00 0.00 0.00 73 1010.7
20260507150024 57 0.0 0.9 0.00 0.00 0.00 75 1010.7
20260507145105 56 0.0 1.7 0.00 0.00 0.00 74 1011.0
20260507144024 56 0.0 0.9 0.00 0.00 0.00 75 1011.3
20260507143025 56 0.0 5.2 0.00 0.00 0.00 73 1011.4
20260507142024 56 0.0 2.6 0.00 0.00 0.00 72 1011.3
20260507141024 56 0.0 3.5 0.00 0.00 0.00 72 1011.2
20260507140025 57 0.0 0.9 0.00 0.00 0.00 73 1011.5
20260507135025 57 0.0 1.7 0.00 0.00 0.00 73 1011.5
20260507134025 57 0.0 2.6 0.00 0.00 0.00 74 1011.3
20260507133024 57 0.0 2.6 0.00 0.00 0.00 73 1011.2
20260507132026 57 0.0 1.7 0.00 0.00 0.00 79 1011.2
20260507131026 56 68 0.9 4.3 0.00 0.00 0.00 78 1011.1
20260507130050 56 0.0 5.2 0.00 0.00 0.00 77 1011.2
20260507125027 56 0.0 2.6 0.00 0.00 0.00 79 1011.3
20260507124024 56 68 0.9 4.3 0.00 0.00 0.00 80 1011.1
20260507123026 56 0.0 4.3 0.00 0.00 0.00 83 1011.1
20260507122027 56 0.0 0.9 0.00 0.00 0.00 85 1011.0
20260507121027 55 0.0 1.7 0.00 0.00 0.00 85 1010.7
20260507120026 55 0.0 4.3 0.00 0.00 0.00 86 1010.4
20260507115026 55 0.0 2.6 0.00 0.00 0.00 86 1010.7
20260507114026 54 0.0 5.2 0.00 0.00 0.00 86 1010.8
20260507113026 54 0.0 2.6 0.00 0.00 0.00 86 1010.6
20260507112026 54 0.0 2.6 0.00 0.00 0.00 86 1010.3
20260507111106 54 0.0 0.0 0.00 0.00 0.00 85 1010.6
20260507110025 0 0.0 0.0 0.00 0.00 0.00
20260507105025 0 0.0 0.0 0.00 0.00 0.00
20260507104543 0 0.0 0.0 0.00 0.00 0.00
20260507104021 0 0.0 0.0 0.00 0.00 0.00
20260507103605 0 0.0 0.0 0.00 0.00 0.00
20260507102525 0 0.0 0.0 0.00 0.00 0.00
20260507102044 0 0.0 0.0 0.00 0.00 0.00
20260507101523 0 0.0 0.0 0.00 0.00 0.00
20260507101026 0 0.0 0.0 0.00 0.00 0.00
20260507100024 0 0.0 0.0 0.00 0.00 0.00
20260507095559 0 0.0 0.0 0.00 0.00 0.00
20260507095059 0 0.0 0.0 0.00 0.00 0.00
20260507094524 0 0.0 0.0 0.00 0.00 0.00
20260507093525 0 0.0 0.0 0.00 0.00 0.00
20260507093039 0 0.0 0.0 0.00 0.00 0.00
20260507092519 0 0.0 0.0 0.00 0.00 0.00
20260507091544 0 0.0 0.0 0.00 0.00 0.00
20260507090607 0 0.0 0.0 0.00 0.00 0.00 76
20260507090103 0 0.0 0.0 0.00 0.00 0.00 76
20260507085046 54 0.0 0.9 0.00 0.00 0.00 71 1009.6
20260507084026 55 0.0 0.9 0.00 0.00 0.00 70 1009.9
20260507083027 55 0.0 0.0 0.00 0.00 0.00 67 1009.9
20260507082026 55 0.0 0.9 0.00 0.00 0.00 69 1009.9
20260507081026 55 0.0 0.0 0.00 0.00 0.00 70 1010.2
20260507080026 55 0.0 0.9 0.00 0.00 0.00 70 1009.5
20260507075026 56 0.0 0.9 0.00 0.00 0.00 65 1009.3
20260507074026 56 0.0 0.9 0.00 0.00 0.00 61 1009.2
20260507073025 56 0.0 0.9 0.00 0.00 0.00 63 1009.2
20260507072105 56 0.0 0.0 0.00 0.00 0.00 64 1009.1
20260507071025 56 0.0 0.0 0.00 0.00 0.00 65 1009.1
20260507070025 56 0.0 1.7 0.00 0.00 0.00 69 1009.3
20260507065025 56 0.0 1.7 0.00 0.00 0.00 70 1009.1
20260507064026 57 68 0.9 6.1 0.00 0.00 0.00 66 1009.1
20260507063025 57 0.0 2.6 0.00 0.00 0.00 60 1009.4
20260507062046 57 0.0 2.6 0.00 0.00 0.00 58 1009.2
20260507061025 57 0.0 0.9 0.00 0.00 0.00 56 1008.5
20260507060045 58 0.0 0.9 0.00 0.00 0.00 63 1007.7
20260507055046 58 0.0 2.6 0.00 0.00 0.00 66 1007.5
20260507054045 59 0.0 0.9 0.00 0.00 0.00 65 1007.7
20260507053025 60 0.0 1.7 0.00 0.00 0.00 68 1008.5
20260507052025 60 0.0 2.6 0.00 0.00 0.00 76 1008.9
20260507051025 61 0.0 2.6 0.00 0.00 0.00 80 1009.1
20260507050025 62 0.0 1.7 0.00 0.00 0.00 72 1008.9
20260507045025 63 0.0 1.7 0.00 0.00 0.00 76 1008.7
20260507044025 64 68 0.9 5.2 0.00 0.00 0.00 77 1008.2
20260507043025 64 0.0 0.0 0.00 0.00 0.00 59 1008.7
20260507042025 64 0.0 0.0 0.00 0.00 0.00 65 1008.2
20260507041025 64 0.0 3.5 0.00 0.00 0.00 66 1008.1
20260507040046 64 0.0 0.0 0.00 0.00 0.00 68 1008.3
20260507035025 64 0.0 0.0 0.00 0.00 0.00 73 1008.0
20260507034026 64 0.0 0.0 0.00 0.00 0.00 75 1007.9
20260507033025 64 0.0 0.0 0.00 0.00 0.00 76 1007.7
20260507032025 64 0.0 0.0 0.00 0.00 0.00 72 1007.8
20260507031026 64 0.0 0.0 0.00 0.00 0.00 71 1008.2
20260507030025 64 0.0 0.0 0.00 0.00 0.00 71 1008.0
20260507025026 63 0.0 0.0 0.00 0.00 0.00 73 1007.9
20260507024025 64 0.0 0.0 0.00 0.00 0.00 75 1007.8
20260507023025 64 0.0 0.0 0.00 0.00 0.00 77 1007.3
20260507022046 64 0.0 0.0 0.00 0.00 0.00 78 1007.2
20260507021046 64 0.0 0.0 0.00 0.00 0.00 80 1007.3
20260507020026 64 0.0 0.0 0.00 0.00 0.00 81 1007.7
20260507015045 64 0.0 0.0 0.00 0.00 0.00 83 1007.7
20260507014025 65 0.0 0.0 0.00 0.00 0.00 84 1007.6
20260507013045 65 0.0 0.0 0.00 0.00 0.00 85 1007.9
20260507012025 65 0.0 0.0 0.00 0.00 0.00 85 1007.9
20260507011025 66 0.0 0.0 0.00 0.00 0.00 85 1007.6
20260507010025 66 0.0 0.0 0.00 0.00 0.00 85 1007.4
20260507005025 66 0.0 0.9 0.00 0.00 0.00 84 1007.3
20260507004025 67 0.0 0.0 0.00 0.00 0.00 84 1007.1
20260507003025 67 0.0 1.7 0.00 0.00 0.00 84 1007.3
20260507002025 68 0.0 0.0 0.00 0.00 0.00 84 1007.3
20260507001025 68 0.0 0.9 0.00 0.00 0.00 83 1007.4
20260507000025 68 0.0 0.0 0.00 0.00 0.00 82 1007.3
20260506235025 69 0.0 0.9 0.00 0.00 0.00 81 1007.1
20260506234045 69 0.0 0.9 0.00 0.00 0.00 81 1006.9
20260506233026 69 0.0 0.9 0.00 0.00 0.00 81 1006.6
20260506232025 70 0.0 0.9 0.00 0.00 0.00 80 1006.7
20260506231025 70 0.0 1.7 0.00 0.00 0.00 80 1006.8
20260506230045 70 0.0 3.5 0.00 0.00 0.00 79 1006.8
20260506225026 70 0.0 1.7 0.00 0.00 0.00 79 1006.9
20260506224025 71 0.0 2.6 0.00 0.00 0.00 78 1006.7
20260506223024 71 0.0 3.5 0.00 0.00 0.00 77 1006.8
20260506222025 71 68 0.9 3.5 0.00 0.00 0.00 76 1006.9
20260506221025 71 0.0 0.9 0.00 0.00 0.00 77 1006.7
20260506220044 71 68 0.9 4.3 0.00 0.00 0.00 76 1006.8
20260506215025 71 68 0.9 9.6 0.00 0.00 0.00 76 1006.6
20260506214025 72 68 0.9 3.5 0.00 0.00 0.00 76 1006.7